Location: Krakow
(50.0830°N, 19.9170°E)
Time: 17:43:41
(UTC+01:00)

Courier 1B Rocket - All Passes

Search period start: 11 December 2023 00:00
Search period end: 21 December 2023 00:00
Orbit: 920 x 1201 km, 28.2° (Epoch: 10 December)

Date Brightness Start Highest point End Pass type
(mag) Time Alt. Az. Time Alt. Az. Time Alt. Az.
11 Dec - 11:12:38 10° S 11:13:32 10° S 11:14:26 10° S daylight
12 Dec - 10:11:39 10° S 10:12:51 10° S 10:14:02 10° SSE daylight
13 Dec - 11:03:02 10° SSW 11:04:05 10° S 11:05:10 10° S daylight
14 Dec - 10:01:20 10° SSW 10:03:23 11° S 10:05:24 10° SSE daylight
15 Dec - 09:00:24 10° SSW 09:02:39 11° S 09:04:51 10° SSE daylight
16 Dec - 08:00:05 10° S 08:01:53 11° S 08:03:40 10° SSE daylight
16 Dec - 09:51:47 10° SSW 09:53:54 11° S 09:55:59 10° S daylight
17 Dec - 08:50:23 10° SSW 08:53:09 12° S 08:55:52 10° SSE daylight
18 Dec - 07:49:31 10° SSW 07:52:22 12° S 07:55:11 10° SSE daylight
18 Dec - 09:42:59 10° SSW 09:44:24 11° SSW 09:45:48 10° S daylight
19 Dec - 06:49:09 10° S 06:51:34 12° S 06:53:58 10° SSE visible
19 Dec - 08:40:54 10° SSW 08:43:38 12° S 08:46:20 10° SSE daylight
20 Dec - 05:50:06 10° S 05:50:46 10° SSE 05:51:27 10° SSE visible
20 Dec - 07:39:38 10° SSW 07:42:51 13° S 07:46:00 10° SSE daylight
